Aérodrome :
LOGIN :

S'inscrire | Disclaimer

   EN    FR    IT 

 










Légende :    VFR   VFR Marginal   IFR   IFR Intensif   IFR Très Intensif
Visi : 
Plafond : 
>= 8 km
>= 3000ft
5 à 8 km
1000 à 3000 ft
1500m à 5 km
500 à 1000 ft
800 à 1500m
200 à 500 ft
< 800m
< 200 ft
Symboles :   Orages  Brouillard  Fortes neiges  Fortes précipitations  Vent > 20 kt
SIGMETs :   Divers  Orages  Givrage  Turbulence  Onde Orograph.  Cendres Volcan.







- Altitude de l'aérodrome : 219 ft
- Code IATA : DNR
- Voir les cartes d'approche


LFRD - Dinard

DERNIER METAR :
  • 220130Z AUTO VRB01KT CAVOK 10/07 Q1029 NOSIG

METARs EXPIRÉS :
  • 220100Z AUTO 04004KT CAVOK 11/07 Q1029 NOSIG
  • 220030Z AUTO 05005KT CAVOK 12/07 Q1029 NOSIG
  • 220000Z AUTO 05004KT CAVOK 12/07 Q1029 NOSIG
  • 212330Z AUTO 04005KT CAVOK 12/07 Q1029 NOSIG
  • 212300Z AUTO 04004KT CAVOK 13/07 Q1029 NOSIG

TAF TAF LFRD
Valide du 22 à 00h jusqu'au 23 à 00h UTC


212300Z 2200/2224 03005KT CAVOK
BECMG 2212/2215 36015KT
TEMPO 2215/2218 02015G25KT
BECMG 2218/2220 04008KT
ATIS : +33 2 99 16 81 50
Pas de NOTAMs connus pour ce terrain.



MET'MAP, la Météo Aéronautique d'un coup d'oeil ! - Copyright ORBIFLY Décembre 2007 - Disclaimer

ORBIFLY MET'MAP TEAM :

Programmation & Développement : Alexandra Zaïnal
Conception & Développement : Baudouin d'Aumeries
Co-Programmation & Développement : Marc-Olivier Méhu
Soutien technique & logistique : Manuel Goepfert

Contact : metmap@orbifly.com




SOURCES & CREDITS :

   NOAA